User: anonymous   Login
Location: Voyageurs National Park
(48.5020°N, 92.9292°W)
Time: 08:26:40
(UTC-06:00)
Language:

Terra - Orbit

View from above orbital plane
View from above orbital plane
View from above satellite
View from above satellite

Ground track
Ground track

The orbit data is extracted from the following two-line orbital elements,

1 25994U 99068A   14353.09764953  .00000861  00000-0  20109-3 0  9316
2 25994 098.2088 065.1804 0001056 103.6011 256.5314 14.57102591797996
Epoch (UTC): 19 December 2014 02:20:36
Eccentricity: 0.0001056
inclination: 98.2088°
perigee height: 702 km
apogee height: 703 km
right ascension of ascending node: 65.1804°
argument of perigee: 103.6011°
revolutions per day: 14.57102591
mean anomaly at epoch: 256.5314°
orbit number at epoch: 79799

The dashed part of the orbit path shows where the satellite is in the earth's shadow,  

DLR